FW4339 Weather Reports


Display with metric or nautical units.
time (UTC)temp
F
wind
direction
speed
MPH
gust
MPH
rain 1hr
in
rain 24hr
in
rain mn
in
humidity
%
barometer
mb
20260510233021 64 0.0 0.0 0.00 0.00 0.00 82 1012.0
20260510231520 64 0.0 0.0 0.00 0.00 0.00 82 1012.2
20260510230017 64 0.0 0.0 0.00 0.00 0.00 81 1012.5
20260510224516 64 0.0 0.0 0.00 0.00 0.00 81 1012.5
20260510223015 64 0.0 0.0 0.00 0.00 0.00 80 1012.6
20260510221513 64 0.0 0.0 0.00 0.00 0.00 81 1012.6
20260510220013 64 0.0 0.0 0.00 0.00 0.00 80 1012.6
20260510214510 65 0.0 0.0 0.00 0.00 0.00 78 1012.7
20260510213021 65 0.0 0.0 0.00 0.00 0.00 76 1012.6
20260510211517 65 0.0 0.0 0.00 0.00 0.00 75 1012.6
20260510210032 65 0.0 0.0 0.00 0.00 0.00 75 1012.6
20260510204512 66 0.0 0.0 0.00 0.00 0.00 75 1012.5
20260510203011 66 0.0 0.0 0.00 0.00 0.00 75 1012.6
20260510201511 66 0.0 0.0 0.00 0.00 0.00 75 1012.7
20260510200009 66 0.0 0.0 0.00 0.00 0.00 74 1012.8
20260510194509 66 0.0 0.0 0.00 0.00 0.00 73 1012.8
20260510193008 66 0.0 0.0 0.00 0.00 0.00 73 1012.9
20260510191508 66 0.0 0.0 0.00 0.00 0.00 73 1012.9
20260510190008 66 0.0 0.0 0.00 0.00 0.00 72 1012.9
20260510184508 67 0.0 0.0 0.00 0.00 0.00 71 1012.7
20260510183007 67 0.0 0.0 0.00 0.00 0.00 71 1012.7
20260510181512 67 0.0 0.0 0.00 0.00 0.00 71 1012.8
20260510180025 67 0.0 0.0 0.00 0.00 0.00 71 1012.7
20260510174523 67 0.0 0.0 0.00 0.00 0.00 71 1012.7
20260510173020 68 0.0 0.0 0.00 0.00 0.00 71 1012.5
20260510171519 68 0.0 0.0 0.00 0.00 0.00 71 1012.6
20260510170004 68 0.0 0.0 0.00 0.00 0.00 70 1012.7
20260510164502 68 0.0 0.0 0.00 0.00 0.00 70 1012.6
20260510163002 68 0.0 0.0 0.00 0.00 0.00 69 1012.7
20260510161501 68 0.0 0.0 0.00 0.00 0.00 69 1012.8
20260510160003 68 0.0 0.0 0.00 0.00 0.00 69 1012.9
20260510154500 69 0.0 0.0 0.00 0.00 0.00 68 1012.7
20260510153107 69 0.0 0.0 0.00 0.00 0.00 67 1012.7
20260510151558 70 0.0 0.0 0.00 0.00 0.00 65 1013.0
20260510150057 70 0.0 0.0 0.00 0.00 0.00 63 1013.1
20260510144557 70 0.0 0.0 0.00 0.00 0.00 62 1013.4
20260510143110 71 0.0 0.0 0.00 0.00 0.00 62 1013.3
20260510141557 70 0.0 0.0 0.00 0.00 0.00 62 1013.2
20260510140100 70 0.0 0.0 0.00 0.00 0.00 62 1013.3
20260510134606 71 0.0 0.0 0.00 0.00 0.00 63 1013.1
20260510133059 72 0.0 0.0 0.00 0.00 0.00 63 1013.1
20260510131558 71 0.0 0.0 0.00 0.00 0.00 64 1013.4
20260510130055 71 0.0 0.0 0.00 0.00 0.00 64 1013.9
20260510124556 71 0.0 0.0 0.00 0.00 0.00 64 1014.1
20260510123053 72 0.0 0.0 0.00 0.00 0.00 65 1014.2
20260510121553 74 0.0 0.0 0.00 0.00 0.00 60 1014.4
20260510120056 75 0.0 0.0 0.00 0.00 0.00 58 1014.4
20260510114558 76 0.0 0.0 0.00 0.00 0.00 56 1014.4
20260510113057 76 0.0 0.0 0.00 0.00 0.00 54 1014.3
20260510111555 76 0.0 0.0 0.00 0.00 0.00 54 1014.3
20260510110052 74 0.0 0.0 0.00 0.00 0.00 58 1014.3
20260510104554 73 0.0 0.0 0.00 0.00 0.00 64 1014.5
20260510103051 75 0.0 0.0 0.00 0.00 0.00 61 1014.7
20260510101551 76 0.0 0.0 0.00 0.00 0.00 52 1014.8
20260510100009 75 0.0 0.0 0.00 0.00 0.00 53 1015.0
20260510094508 74 0.0 0.0 0.00 0.00 0.00 53 1015.0
20260510093006 75 0.0 0.0 0.00 0.00 0.00 54 1015.0
20260510091506 75 0.0 0.0 0.00 0.00 0.00 55 1015.1
20260510090045 74 0.0 0.0 0.00 0.00 0.00 57 1015.1
20260510084539 73 0.0 0.0 0.00 0.00 0.00 59 1015.2
20260510083043 73 0.0 0.0 0.00 0.00 0.00 60 1015.2
20260510081534 72 0.0 0.0 0.00 0.00 0.00 61 1015.0
20260510080028 72 0.0 0.0 0.00 0.00 0.00 62 1015.1
20260510074525 71 0.0 0.0 0.00 0.00 0.00 64 1014.8
20260510073023 70 0.0 0.0 0.00 0.00 0.00 66 1014.9
20260510071527 69 0.0 0.0 0.00 0.00 0.00 68 1014.8
20260510070013 68 0.0 0.0 0.00 0.00 0.00 69 1014.8
20260510063007 67 0.0 0.0 0.00 0.00 0.00 73 1014.5
20260510061502 66 0.0 0.0 0.00 0.00 0.00 74 1014.7
20260510060100 66 0.0 0.0 0.00 0.00 0.00 74 1014.6
20260510054555 66 0.0 0.0 0.00 0.00 0.00 74 1014.4
20260510053051 65 0.0 0.0 0.00 0.00 0.00 76 1014.2
20260510051547 64 0.0 0.0 0.00 0.00 0.00 77 1014.1
20260510050043 63 0.0 0.0 0.00 0.00 0.00 78 1014.2
20260510044542 62 0.0 0.0 0.00 0.00 0.00 78 1014.2
20260510043039 62 0.0 0.0 0.00 0.00 0.00 79 1014.1
20260510041537 61 0.0 0.0 0.00 0.00 0.00 78 1014.0
20260510040035 61 0.0 0.0 0.00 0.00 0.00 78 1013.8
20260510034538 61 0.0 0.0 0.00 0.00 0.00 77 1013.6
20260510033031 61 0.0 0.0 0.00 0.00 0.00 77 1013.6
20260510031541 61 0.0 0.0 0.00 0.00 0.00 77 1013.6
20260510030027 61 0.0 0.0 0.00 0.00 0.00 77 1013.4
20260510024536 61 0.0 0.0 0.00 0.00 0.00 75 1013.4
20260510023024 61 0.0 0.0 0.00 0.00 0.00 73 1013.4
20260510021525 62 0.0 0.0 0.00 0.00 0.00 72 1013.5
20260510020024 62 0.0 0.0 0.00 0.00 0.00 72 1013.4
20260510014524 62 0.0 0.0 0.00 0.00 0.00 72 1013.4
20260510013023 62 0.0 0.0 0.00 0.00 0.00 71 1013.3
20260510011533 62 0.0 0.0 0.00 0.00 0.00 71 1013.2
20260510010022 62 0.0 0.0 0.00 0.00 0.00 70 1013.3
20260510004523 62 0.0 0.0 0.00 0.00 0.00 70 1013.0
20260510003045 62 0.0 0.0 0.00 0.00 0.00 68 1013.1
20260510001518 63 0.0 0.0 0.00 0.00 0.00 68 1013.0
20260510000017 62 0.0 0.0 0.00 0.00 0.00 67 1013.1
20260509234526 63 0.0 0.0 0.00 0.00 0.00 67 1013.1